Location: Erbray
(47.6549°N, 1.3178°W)
Time: 22:55:58
(UTC+00:00)

Daily predictions for brighter satellites

Satellite Brightness Start Highest point End
(mag) Time Altitude Azimuth Time Altitude Azimuth Time Altitude Azimuth
Tsikada Rocket 4.4 16:41:13 10° NNW 16:47:35 76° W 16:53:57 10° S
Cosmos 2221 3.9 16:46:23 10° SE 16:49:22 19° E 16:52:23 10° NE
ISS -3.7 16:47:40 10° WSW 16:51:03 83° SSE 16:54:28 10° ENE
Cosmos 1992 Rocket 4.2 16:46:53 10° SSW 16:52:05 76° WNW 16:57:21 10° NNE
CZ-2C R/B 4.2 16:50:47 10° NE 16:53:34 14° E 16:56:20 10° ESE
USA 81 4.1 16:48:50 10° S 16:54:06 87° E 16:59:24 10° N
Cosmos 1340 Rocket 4.5 16:52:53 10° NNE 16:55:13 15° ENE 16:57:34 10° E
USA 267 3.5 16:48:49 10° NE 16:55:19 68° NNW 17:01:47 10° WSW
Spot 1 4.2 16:51:19 10° NNE 16:55:48 70° ESE 17:00:30 10° S
Cosmos 1503 Rocket 4.3 16:52:31 10° NNW 16:57:54 78° WSW 17:03:16 10° SSE
RESURS DK-1 3.7 16:55:12 10° WSW 16:59:03 37° NW 17:02:56 10° NNE
USA 306 3.5 16:55:53 10° SSW 16:59:55 43° SE 17:03:58 10° ENE
Lacrosse 5 rocket 2.4 16:56:34 10° W 16:59:58 32° NNW 17:03:31 10° NE
Cosmos 1271 Rocket 3.2 16:56:55 10° SSE 17:00:34 40° E 17:04:17 10° NNE
SMAP 3.1 17:01:24 10° SSE 17:05:57 57° ENE 17:10:32 10° N
ATLAS 2AS CENTAUR R/B 3.6 16:59:18 10° WSW 17:07:00 55° NW 17:14:27 10° NE
Cosmos 1408 Rocket 4.2 17:03:58 10° N 17:07:52 31° ENE 17:11:44 10° SE
CZ-4B DEB 4.4 17:04:00 10° SE 17:09:20 52° ENE 17:14:40 10° N
Cosmos 2233 Rocket 4.3 17:04:10 10° SSW 17:10:16 70° W 17:16:29 10° N
Cosmos 1980 Rocket 4.0 17:07:56 10° N 17:10:27 13° NNE 17:12:43 10° ENE
Cosmos 1697 Rocket 4.0 17:06:36 10° N 17:10:32 19° NE 17:14:22 10° E
NOAA 12 4.2 17:07:54 10° SSE 17:13:14 85° WSW 17:18:37 10° NNW
H-2A R/B 2.5 17:08:58 10° SE 17:13:46 37° ENE 17:18:29 10° N
USA 307 3.3 17:10:50 10° SW 17:14:59 50° SE 17:18:33 14° ENE
PAYLOAD B 4.5 17:11:14 10° SE 17:16:34 47° ENE 17:21:56 10° N
Cosmos 44 4.1 17:12:33 10° NNW 17:16:52 29° NE 17:20:56 10° E
Cosmos 1777 Rocket 4.0 17:13:40 10° NNW 17:18:59 78° ENE 17:24:16 10° SSE
ATLAS CENTAUR R/B 1.4 17:15:48 10° SSW 17:19:50 70° SE 17:23:56 12° NE
Cosmos 2034 Rocket 4.4 17:15:31 10° SSE 17:21:10 39° E 17:26:49 10° NNE
Lacrosse 5 2.0 17:16:59 10° NW 17:22:08 83° SW 17:27:14 10° SE
NOSS 3-1 (A) 4.4 17:16:38 10° NW 17:23:15 40° NE 17:31:02 10° ESE
Cosmos 1939 Rocket 2.9 17:19:13 10° SSE 17:23:21 88° E 17:27:30 10° NNW
SL-16 R/B 4.4 17:22:55 10° WNW 17:26:34 17° NW 17:30:14 10° N
NOSS 3-1 (C) 4.1 17:21:25 10° NW 17:28:30 56° NE 17:36:52 10° ESE
Okean 3 Rocket 3.6 17:24:27 10° N 17:29:00 88° W 17:33:30 10° S
NOSS 2-1 (C) 2.7 17:26:34 10° SSW 17:29:50 72° SE 17:32:11 18° NE
Cosmos 1656 4.1 17:25:12 10° NNW 17:30:21 39° NE 17:35:33 10° ESE
MOS 1-B Rocket 4.4 17:25:56 10° NNE 17:31:14 39° E 17:36:58 10° SSE
Cosmos 1862 3.6 17:30:15 10° NNW 17:34:13 71° W 17:38:10 10° S
CZ-2D R/B 3.3 17:31:10 10° SSE 17:34:56 55° ENE 17:38:43 10° N
GEOS 3 Rocket 3.6 17:30:24 10° SE 17:35:35 62° NE 17:40:43 10° NW
Cosmos 1461 3.1 17:32:04 10° SW 17:36:18 69° NW 17:39:49 14° NNE
PSLV R/B 3.5 17:33:11 10° SSE 17:36:51 70° ENE 17:40:32 10° N
USA 308 2.9 17:32:47 10° SW 17:37:01 70° SE 17:39:45 21° ENE
MOS 1-B 4.3 17:31:25 10° SSE 17:37:07 64° ENE 17:42:50 10° N
NOSS 2-1 (D) 2.7 17:35:49 10° SW 17:39:06 90° NE 17:41:11 21° NE
Cosmos 1500 Rocket 4.0 17:37:13 10° N 17:41:27 40° ENE 17:45:38 10° SE
ATLAS 3B R/B 4.5 17:36:58 10° NW 17:43:30 38° WSW 17:50:16 10° S
SJ 16-02 1.4 17:39:26 10° NNW 17:43:49 84° WSW 17:48:11 10° SSE
CZ-2C R/B 4.5 17:41:33 10° SSW 17:46:19 39° W 17:50:54 10° NNW
Cosmos 1805 Rocket 4.2 17:47:51 10° N 17:51:44 31° ENE 17:55:35 10° SE
Cosmos 1842 Rocket 3.5 17:47:52 10° S 17:52:16 72° E 17:56:45 10° NNE
CZ-4C R/B 3.8 17:47:29 10° NNW 17:53:00 27° NNE 17:56:08 21° ENE
CZ-4B R/B 3.1 17:48:54 10° SSE 17:54:19 66° ENE 17:59:41 10° N
ATLAS 5 CENTAUR R/B 3.5 17:47:37 10° NW 17:57:02 31° N 17:58:53 24° NE
Cosmos 1833 Rocket 3.6 17:53:46 10° SSE 17:58:15 25° ESE 17:58:47 25° E
CZ-4 R/B 3.2 18:00:42 17° NNE 18:00:42 17° NNE 18:01:55 10° N
Cosmos 1606 3.4 18:02:54 10° SSW 18:06:34 53° WNW 18:10:17 10° N
Meteor 1-25 Rocket 4.1 18:01:56 10° N 18:07:27 60° ENE 18:12:57 10° SSE
USA 305 2.9 18:03:45 10° WSW 18:07:58 71° NNW 18:09:32 37° NE
Cosmos 2026 Rocket 4.0 18:02:11 10° N 18:08:15 52° ENE 18:14:11 10° SSE
Cosmos 2195 Rocket 4.4 18:03:30 10° N 18:09:35 62° ENE 18:15:40 10° SSE
USA 276 2.3 18:07:17 10° WNW 18:10:23 55° N 18:10:26 54° N
Sich 1 4.1 18:06:51 10° N 18:09:17 27° NNE 18:09:17 27° NNE
Okean O Rocket 1.5 18:08:41 10° SSE 18:13:06 74° ENE 18:17:34 10° N
ARGOS 3.0 18:08:52 10° SSE 18:14:16 74° ENE 18:19:42 10° N
COSMO-SKYMED 1 2.4 18:11:30 20° NNE 18:14:28 70° ESE 18:18:48 10° S
ATLAS CENTAUR R/B 3.0 18:08:11 10° SSW 18:17:44 49° SE 18:19:17 38° E
ERBS 2.2 18:16:52 10° SW 18:19:49 69° S 18:19:49 69° S
Cosmos 1937 Rocket 3.9 18:15:35 10° N 18:20:38 41° ENE 18:21:06 40° ENE
Helios 1B 4.5 18:23:38 22° NNE 18:26:23 88° WNW 18:30:43 10° SSW
Cosmos 2221 3.6 18:22:31 10° SSW 18:26:35 43° WNW 18:30:42 10° N
Cosmos 1763 Rocket 3.4 18:23:02 10° S 18:27:57 55° ESE 18:28:45 49° ENE
ISS -2.8 18:24:51 10° W 18:27:48 41° NNW 18:27:48 41° NNW
Cosmos 1340 Rocket 3.4 18:28:03 10° NNW 18:32:02 57° W 18:36:00 10° S
Cosmos 1933 3.2 18:29:26 10° S 18:33:24 77° ESE 18:33:24 77° ESE
deb Chang Zheng 4 4.2 18:29:35 10° S 18:33:48 55° WSW 18:38:04 10° NNW
YAOGAN 1 3.5 18:35:36 34° N 18:35:36 34° N 18:38:13 10° N
CZ-2C R/B 2.5 18:29:18 10° NNE 18:34:35 84° WNW 18:39:46 10° SSW
Meteor 2-21 4.3 18:31:07 10° N 18:37:16 75° E 18:43:20 10° SSE
USA 267 4.0 18:35:05 28° NE 18:37:47 41° N 18:43:48 10° WNW
Cosmos 2369 4.0 18:32:51 10° NNW 18:38:07 45° NE 18:38:07 45° NE
Feng Yun 1-1 Rocket 4.3 18:33:26 10° SSE 18:39:22 82° ENE 18:45:18 10° NNW
NOSS 2-1 (E) 4.5 18:36:31 10° W 18:39:23 28° NW 18:39:37 28° NNW
Landsat 5 3.4 18:38:53 56° N 18:39:45 87° WNW 18:43:54 10° SSW
USA 306 3.3 18:35:36 10° W 18:39:46 52° NNW 18:40:01 51° N
Lacrosse 5 rocket 3.1 18:36:59 10° NW 18:39:29 20° N 18:39:29 20° N
Cosmos 990 Rocket 4.0 18:35:55 10° NNW 18:41:10 80° WSW 18:46:20 10° SSE
Cosmos 2322 Rocket 4.3 18:40:23 10° N 18:41:20 12° NNE 18:41:20 12° NNE
USA 229 DEB 3.8 18:44:13 10° NW 18:51:33 82° NE 18:54:57 38° SE
USA 229 3.8 18:44:19 10° NW 18:51:40 81° NE 18:54:58 38° SE
Cosmos 1092 Rocket 4.4 18:46:10 10° NNW 18:52:27 66° W 18:58:43 10° S
H-2A R/B 3.7 18:48:28 10° SSW 18:53:13 33° W 18:57:54 10° NNW
USA 307 3.6 18:50:47 10° W 18:54:34 47° NW 18:54:34 47° NW
Cosmos 1697 Rocket 2.5 18:49:45 10° NNW 18:55:25 83° ENE 18:56:10 67° SE
SL-16 R/B 4.2 18:51:40 10° N 18:53:08 15° N 18:53:08 15° N
Cosmos 1980 Rocket 2.9 18:50:27 10° NNW 18:54:31 39° NNE 18:54:31 39° NNE
COSMOS 2455 4.3 18:52:15 10° S 18:54:37 22° SSE 18:54:37 22° SSE
Cosmos 44 3.8 18:53:41 10° NW 18:58:22 53° WSW 18:59:25 43° SSW
COSMOS 2406 3.6 18:52:55 10° S 18:57:17 47° SSE 18:57:17 47° SSE
ATLAS CENTAUR R/B 3.4 18:55:48 10° W 18:59:11 23° NNW 19:00:03 21° NNW
ATLAS 2AS CENTAUR R/B 4.4 18:53:20 10° WNW 18:59:40 26° NNW 19:02:55 20° NNE
Meteor 1-26 Rocket 4.2 18:54:07 10° S 19:00:00 87° E 19:02:35 37° NNE
Cosmos 2082 Rocket 4.1 18:57:05 10° S 18:58:13 16° SSE 18:58:13 16° SSE
Cosmos 2142 Rocket 4.3 18:57:52 10° S 19:03:58 75° E 19:04:23 72° ENE
Lacrosse 5 4.4 19:01:03 10° W 19:04:28 18° WSW 19:07:51 10° SSW
Cosmos 1898 Rocket 3.9 19:05:00 10° NNW 19:10:13 62° WSW 19:11:39 44° SSW
Meteor 1-14 Rocket 4.4 19:04:36 10° N 19:09:24 63° N 19:09:24 63° N
NOSS 3-1 (A) 4.2 19:07:22 10° NW 19:14:51 76° SW 19:19:12 33° SSE
Cosmos 2279 Rocket 4.0 19:22:15 10° SSW 19:28:11 77° WSW 19:28:11 77° WSW
CZ-4 R/B 4.2 19:36:41 13° NNW 19:36:41 13° NNW 19:37:08 10° NNW
Cosmos 1833 Rocket 3.5 19:36:14 10° SW 19:40:32 47° WSW 19:40:32 47° WSW
CZ-4C R/B 3.2 19:35:50 10° NW 19:41:21 54° N 19:41:21 54° N
